Αρχική σελίδα
METAR-TAF:

METAR-TAF

Αεροδρόμια :

Schenck Field

Clarinda, Αϊόβα, Ηνωμένες Πολιτείες Αμερικής

γεωγραφικό πλάτος: 40-43N, γεωγραφικό μήκος: 095-02W, υψόμετρο: 303 μ

Παρών καιρός

Η αναφορά έγινε 7 λεπτά πριν, στις 02:15 UTC
Άνεμος 11 kt από Β/BA
Θερμοκρασία -5°C
Υγρασία 93%
Πίεση 1030 hPa
Ορατότητα: 2.0 χλμ
Νεφοσκεπής σε ύψος 300 πόδια
Ασθενές χιόνι

METAR: KICL 180215Z AUTO 02011KT 1 1/4SM -SN OVC003 M05/M06 A3042 RMK AO2

Χρόνος: 20:22 (02:22 UTC)


TAF: λείπει

Μετεωρολογικές αναφορές και προγνώσεις για περισσότερα από 4000 αεροδρόμια (δελτία METAR και TAF).

Οι διαθέσιμοι σταθμοί απεικονίζονται στο χάρτη με κίτρινες και κόκκινες κουκκίδες.

Μετακινήστε το ποντίκι πάνω από τις κουκκίδες για να δείτε το όνομα του σταθμού.

Στη συνέχεια, κάντε κλικ για να δείτε τις μετεωρολογικές αναφορές και τις προγνώσεις καιρού.

Για να αλλάξετε το χάρτη: κάντε κλικ στα πράσινα κουμπιά με τον μαύρο σταυρό για να ζουμάρετε, στο πράσινο κουμπί με την παύλα για να αφαιρέσετε το ζουμ ή στα πράσινα βέλη για να αντιπαραβάλλετε χάρτες.


METAR-TAF: